CZ-6A R/B, 52152

Orbit data source: Space-Track

CZ-6A R/B, 52152 is space debris in SSO originally from a launch on Tue, 29 Mar 2022 UTC launched from the Taiyaun Space Center, China (TSC). Debris objects in space refer to the collection of defunct objects orbiting the Earth. Examples of debris include non-operational satellites, rocket bodies, and fragments generated from explosions, collisions, or faulty payload assembly.

Loading next visibility...
Identifier
52152, 2022-031C
Orbit
SSO
Country
Flag of CNCN / PRC
Related business
Manufacturer
SAST
Mission
Spacecraft
Bus & Motor
CZ-6A STAGE 2, YF-115
Mass
~6,000 kg wet, ~6,000 kg dry
Launch date (UTC)
2022-03-29 (4 years ago)
Launch vehicle
Unknown
Launch site
Taiyaun Space Center, China (TSC)
Object type
Payload
Rocket body
Debris
Shape & HBR
Unknown shape, 5.5 m
Radar Cross Section
Large (>1 m²)

Expand to show TLE details & history
Last TLE update: 2 days ago

TLE from 2 days ago
0 CZ-6A R/B
1 52152U 22031C   26171.29882109  .00001565  00000-0  10603-3 0  9999
2 52152  97.8006  17.2287 0017025 193.8057 166.2707 15.07896636231772
Epoch: 2026-06-20T07:10Z
TLE epoch observation values (Epoch: 2026-06-20T07:10:18.142Z)
Latitude
-0.00002°
Longitude
1.13767°
Altitude
557.14 km
Speed
7.577 km/s
True Right ascension
01h 08m 54s
True Declination
0° 00' 00"
Sunlit
Object was in daylight at epoch
Visualization orbit readout
Latitude
Unknown
Longitude
Unknown
Altitude
Unknown
Speed
Unknown
Apparent Right ascension
Unknown
Apparent Declination
Unknown
Sunlit
N/A
Visualization observer readout
Local Sidereal Time
21:24:16
Azimuth
Unknown
Elevation
Unknown
Doppler factor
Unknown
Orbital elements
Apogee altitude
551.405 km
Perigee altitude
527.85 km
Semi-major axis
6,917.765 km
Eccentricity
0.0017
Inclination
97.8006°
RAAN
17.2287°
Arg. of periapsis
193.8057°
True anomaly
166.31691°
Mean anomaly
166.2707°
Eccentric anomaly
166.29381°
Mean motion
3.7722 °/min
Orbital period
95.44 mins
BSTAR
0.00010603
Loading maneuver chart data...
Computing Atmospheric mass density...
Loading historical data...
Loading historical data...
Loading historical data...
Loading historical data...
Loading historical data...
Loading historical data...
Loading historical data...
Other satellites on launch #31 in the year 2022 (2022-03-29 UTC)

Documentation

Showing up to 5 results
|